Regional Weather Roundup
Issued by NWS

Home | Current Version | Previous Version | Graphics & Text | Print | Product List | Glossary On
Versions: 1 2 3 4 5 6 7 8 9 10 11 12 13 14 15 16 17 18 19 20 21 22 23 24 25 26 27 28 29 30 31 32 33 34 35 36 37 38 39 40 41 42 43 44 45 46 47 48 49 50
615
ASUS43 KLMK 202202
RWRKY
KENTUCKY REGIONAL WEATHER ROUNDUP
NATIONAL WEATHER SERVICE LOUISVILLE KY
600 PM EDT FRI OCT 20 2017

NOTE "FAIR" INDICATES FEW OR NO CLOUDS BELOW 12,000 FEET
WITH NO SIGNIFICANT WEATHER AND/OR OBSTRUCTIONS TO VISIBILITY.

KYZ001>023-026-027-061>063-070>075-202300-
WESTERN AND SOUTH CENTRAL KENTUCKY

CITY           SKY/WX    TMP DP  RH WIND       PRES   REMARKS
PADUCAH        CLOUDY    73  50  44 SE6       30.13S
HENDERSON      SUNNY     74  50  42 SE6       30.15F
OWENSBORO      SUNNY     74  50  42 SE8       30.16F
HOPKINSVILLE   SUNNY     74  43  32 SE3       30.15F
BOWLING GREEN  SUNNY     76  48  37 E3        30.17F
GLASGOW        SUNNY     76  47  35 E3        30.17F
$$

KYZ024-025-028>034-038-045-046-053-202300-
NORTH CENTRAL KENTUCKY

CITY           SKY/WX    TMP DP  RH WIND       PRES   REMARKS
LOUISVILLE/SDF MOSUNNY   76  50  40 S6        30.17F
LOUISVILLE/LOU CLEAR     74  51  44 S8        30.18F
FORT KNOX      SUNNY     74  48  39 SE7       30.16F
$$

KYZ035>037-039>044-047>052-055>060-089>105-202300-
NORTHEAST KENTUCKY

CITY           SKY/WX    TMP DP  RH WIND       PRES   REMARKS
LEXINGTON      CLEAR     74  51  44 SE3       30.21F
COVINGTON      MOCLDY    72  56  57 S8        30.19F
FRANKFORT      CLEAR     74  50  42 SE6       30.19F
$$

KYZ054-064>069-076>088-106>120-202300-
SOUTHEAST KENTUCKY

CITY           SKY/WX    TMP DP  RH WIND       PRES   REMARKS
JACKSON        CLEAR     72  51  47 VRB3      30.22F
LONDON         CLEAR     74  48  39 CALM      30.21F
SOMERSET       CLEAR     73  48  40 CALM      30.21F
MIDDLESBORO    CLEAR     71  51  49 CALM      30.21F
MONTICELLO     CLEAR     73  53  49 N10       30.21F
$$





USA.gov is the U.S. government's official web portal to all federal, state and local government web resources and services.